Weather History for Malaga, Spain

Change the Weather History Date:

Monday, April 15, 2013

  Actual Average Record
Temperature  
Mean Temperature 62 °F -  
Max Temperature 70 °F 72 °F 77 °F (2006)
Min Temperature 53 °F 54 °F 46 °F (2001)
Degree Days  
Heating Degree Days 4    
Growing Degree Days 12 (Base 50)    
Moisture  
Dew Point 56 °F    
Average Humidity 83    
Maximum Humidity 94    
Minimum Humidity 58    
Precipitation  
Precipitation 0.00 in 0.04 in - ()
Sea Level Pressure  
Sea Level Pressure 30.18 in    
Wind  
Wind Speed 5 mph ()    
Max Wind Speed 14 mph    
Max Gust Speed -    
Visibility 5.0 miles    
Events      
Averages and records for this station are not official NWS values.
T = Trace of Precipitation, MM = Missing Value Source: Averaged Metar Reports

Daily Weather History Graph

Daily Weather History Graph

Search for Another Location

Airport:

Trip Planner

Search our weather history database for the weather conditions in past years. The results will help you decide how hot, cold, wet, or windy it might be!

Date:

Astronomy

Apr. 15, 2013 Rise Set
Actual Time 7:44 AM CEST 8:52 PM CEST
Civil Twilight 7:17 AM CEST 9:19 PM CEST
Nautical Twilight 6:45 AM CEST 9:50 PM CEST
Astronomical Twilight 6:12 AM CEST 10:24 PM CEST
Moon 11:02 AM CEST (4/15) 12:48 AM CEST (4/15)
Length of Visible Light 14h 01m
Length of Day
13h 08m
Waxing Crescent, 22% of the Moon is Illuminated
Apr 15
Waxing Crescent
Apr 18
First Quarter
Apr 25
Full
May 2
Last Quarter
May 10
New

Hourly Weather History & Observations

Time (CEST) Temp. Dew Point Humidity Pressure Visibility Wind Dir Wind Speed Gust Speed Precip Events Conditions
12:00 AM 59.0 °F 55.4 °F 88% 30.18 in 6.2 mi ESE 2.3 mph - N/A   Partly Cloudy
12:30 AM 59.0 °F 55.4 °F 88% 30.21 in 6.2 mi ESE 1.2 mph - N/A   Partly Cloudy
1:00 AM 59.0 °F 57.2 °F 94% 30.21 in 6.2 mi Calm Calm - N/A   Scattered Clouds
1:30 AM 59.0 °F 55.4 °F 88% 30.21 in 6.2 mi Variable 1.2 mph - N/A   Partly Cloudy
2:00 AM 60 °F 54 °F 76% 30.22 in 12 mi West 3.5 mph - -   Scattered Clouds
2:00 AM 59.0 °F 53.6 °F 82% 30.21 in 6.2 mi West 3.5 mph - N/A   Partly Cloudy
2:30 AM 59.0 °F 53.6 °F 82% 30.18 in 6.2 mi West 2.3 mph - N/A   Partly Cloudy
3:00 AM 57.2 °F 53.6 °F 88% 30.18 in 6.2 mi WNW 6.9 mph - N/A   Partly Cloudy
3:30 AM 55.4 °F 51.8 °F 88% 30.18 in 6.2 mi WNW 4.6 mph - N/A   Partly Cloudy
4:00 AM 55.4 °F 53.6 °F 94% 30.18 in 6.2 mi NW 2.3 mph - N/A   Partly Cloudy
4:30 AM 55.4 °F 53.6 °F 94% 30.18 in 6.2 mi WNW 6.9 mph - N/A   Partly Cloudy
5:00 AM 55.4 °F 53.6 °F 94% 30.18 in 6.2 mi WNW 4.6 mph - N/A   Partly Cloudy
5:30 AM 55.4 °F 53.6 °F 94% 30.18 in 6.2 mi West 3.5 mph - N/A   Partly Cloudy
6:00 AM 55.4 °F 53.6 °F 94% 30.18 in 6.2 mi West 3.5 mph - N/A   Partly Cloudy
6:30 AM 53.6 °F 51.8 °F 94% 30.15 in 6.2 mi West 2.3 mph - N/A   Partly Cloudy
7:00 AM 55.4 °F 53.6 °F 94% 30.15 in 6.2 mi West 4.6 mph - N/A   Partly Cloudy
7:30 AM 53.6 °F 51.8 °F 94% 30.15 in 6.2 mi WNW 3.5 mph - N/A   Partly Cloudy
8:00 AM 56 °F 52 °F 83% 30.19 in 6 mi WNW 3.5 mph - -   Mist
8:00 AM 53.6 °F 51.8 °F 94% 30.18 in 5.6 mi WNW 3.5 mph - N/A   Partly Cloudy
8:30 AM 53.6 °F 51.8 °F 94% 30.18 in 5.6 mi WNW 2.3 mph - N/A   Partly Cloudy
9:00 AM 53.6 °F 51.8 °F 94% 30.18 in 6.2 mi WNW 4.6 mph - N/A   Partly Cloudy
9:30 AM 59.0 °F 55.4 °F 88% 30.21 in 6.2 mi Variable 2.3 mph - N/A   Partly Cloudy
10:00 AM 60.8 °F 55.4 °F 82% 30.21 in 3.1 mi Variable 1.2 mph - N/A   Partly Cloudy
10:30 AM 62.6 °F 55.4 °F 77% 30.21 in 3.7 mi ENE 1.2 mph - N/A   Partly Cloudy
11:00 AM 64.4 °F 55.4 °F 73% 30.21 in 3.7 mi ESE 6.9 mph - N/A   Partly Cloudy
11:30 AM 64.4 °F 55.4 °F 73% 30.21 in 3.7 mi East 9.2 mph - N/A   Partly Cloudy
12:00 PM 66.2 °F 57.2 °F 73% 30.21 in 3.7 mi East 9.2 mph - N/A   Partly Cloudy
12:30 PM 66.2 °F 57.2 °F 73% 30.21 in 3.7 mi East 9.2 mph - N/A   Partly Cloudy
1:00 PM 66.2 °F 55.4 °F 68% 30.21 in 3.7 mi ESE 9.2 mph - N/A   Partly Cloudy
1:30 PM 66.2 °F 57.2 °F 73% 30.21 in 3.7 mi SE 9.2 mph - N/A   Partly Cloudy
2:00 PM 67 °F 56 °F 58% 30.20 in 4 mi SE 9.2 mph - -   Mist
2:00 PM 66.2 °F 57.2 °F 73% 30.18 in 4.3 mi SE 9.2 mph - N/A   Partly Cloudy
2:30 PM 66.2 °F 57.2 °F 73% 30.18 in 4.3 mi SE 10.4 mph - N/A   Partly Cloudy
3:00 PM 66.2 °F 57.2 °F 73% 30.18 in 4.3 mi SSE 11.5 mph - N/A   Partly Cloudy
3:30 PM 68.0 °F 57.2 °F 68% 30.18 in 4.3 mi SE 11.5 mph - N/A   Partly Cloudy
4:00 PM 68.0 °F 55.4 °F 64% 30.18 in 4.3 mi SSE 10.4 mph - N/A   Partly Cloudy
4:30 PM 66.2 °F 57.2 °F 73% 30.15 in 5.0 mi SSE 12.7 mph - N/A   Partly Cloudy
5:00 PM 66.2 °F 57.2 °F 73% 30.15 in 4.3 mi SE 11.5 mph - N/A   Partly Cloudy
5:30 PM 64.4 °F 59.0 °F 83% 30.15 in 5.0 mi SE 11.5 mph - N/A   Partly Cloudy
6:00 PM 66.2 °F 57.2 °F 73% 30.12 in 5.0 mi SE 13.8 mph - N/A   Partly Cloudy
6:30 PM 64.4 °F 59.0 °F 83% 30.12 in 5.0 mi SE 12.7 mph - N/A   Partly Cloudy
7:00 PM 64.4 °F 57.2 °F 77% 30.12 in 4.3 mi ESE 12.7 mph - N/A   Partly Cloudy
7:30 PM 64.4 °F 59.0 °F 83% 30.12 in 4.3 mi SE 11.5 mph - N/A   Partly Cloudy
8:00 PM 65 °F 58 °F 72% 30.15 in 4 mi SE 8.1 mph - -   Mist
8:00 PM 64.4 °F 59.0 °F 83% 30.12 in 4.3 mi SE 8.1 mph - N/A   Partly Cloudy
8:30 PM 62.6 °F 59.0 °F 88% 30.12 in 3.7 mi ESE 9.2 mph - N/A   Partly Cloudy
9:00 PM 62.6 °F 59.0 °F 88% 30.12 in 3.7 mi East 8.1 mph - N/A   Partly Cloudy
9:30 PM 62.6 °F 59.0 °F 88% 30.15 in 3.7 mi East 5.8 mph - N/A   Partly Cloudy
10:00 PM 60.8 °F 59.0 °F 94% 30.15 in 3.7 mi East 6.9 mph - N/A   Scattered Clouds
10:30 PM 60.8 °F 59.0 °F 94% 30.15 in 3.7 mi East 5.8 mph - N/A   Scattered Clouds
11:00 PM 60.8 °F 59.0 °F 94% 30.18 in 3.7 mi East 3.5 mph - N/A   Scattered Clouds
11:30 PM 60.8 °F 59.0 °F 94% 30.18 in 3.7 mi Variable 2.3 mph - N/A   Scattered Clouds